Location: Unspecified
(0.0000°N, 0.0000°E)
Time: 06:25:15
(UTC+02:00)

NOAA 12 - Visible Passes

Search period start: 29 March 2015 00:00
Search period end: 08 April 2015 01:00
Orbit: 795 x 816 km, 98.6° (Epoch: 28 March)

Date Brightness Start Highest point End Pass type
(mag) Time Alt. Az. Time Alt. Az. Time Alt. Az.
29 Mar 5.3 20:22:49 10° SE 20:26:35 21° E 20:30:32 10° NNE visible
29 Mar 6.2 22:01:53 10° SSW 22:06:17 25° WSW 22:10:30 10° NW visible
30 Mar 4.9 21:36:16 10° S 21:41:25 50° WSW 21:46:30 10° NNW visible
31 Mar 4.0 21:11:15 10° SSE 21:16:35 82° E 21:21:52 10° N visible
01 Apr 4.5 20:46:49 10° SSE 20:51:44 41° ENE 20:56:41 10° N visible
01 Apr 7.0 22:29:07 10° SW 22:31:28 12° W 22:33:24 10° W visible
02 Apr 5.3 20:23:04 10° SE 20:26:51 21° E 20:30:48 10° NNE visible
02 Apr 6.2 22:02:11 10° SSW 22:06:33 25° WSW 22:10:44 10° NW visible
03 Apr 4.9 21:36:32 10° S 21:41:41 50° WSW 21:46:45 10° NNW visible
04 Apr 4.0 21:11:32 10° SSE 21:16:51 83° E 21:22:08 10° N visible
05 Apr 4.5 20:47:04 10° SSE 20:52:00 41° ENE 20:56:57 10° N visible
05 Apr 7.0 22:29:26 10° SW 22:31:43 12° W 22:33:35 10° W visible
06 Apr 5.3 20:23:20 10° SE 20:27:06 21° E 20:31:04 10° NNE visible
06 Apr 6.2 22:02:27 10° SSW 22:06:48 25° WSW 22:10:58 10° NW visible
07 Apr 4.9 21:36:49 10° S 21:41:56 49° WSW 21:47:00 10° NNW visible
